Wind_Speed
7 7 6 5 4 4 4 3 3 2 2 1 2 1 1 2 3 3 4 4 4 5 6 7 7 6 6 7 7 7 7 7 7 7 8 8 8 9 9 9 9 10 10
7 5 4 4 4 3 3 3 2 2 2 2 2 2 3 3 4 4 4 5 6 6 7 8 8 8 8 8 9 9 9 9 8 9 9 9 9 10 10 10 11 11 11
5 4 4 4 3 3 2 2 2 2 2 2 2 3 3 4 4 5 5 6 7 7 8 8 9 9 9 9 9 9 10 10 11 10 9 10 10 10 10 10 11 12 12
4 4 3 2 2 3 2 2 2 3 3 3 3 4 4 5 6 6 7 7 8 8 8 9 9 10 10 10 10 10 11 11 11 10 10 10 10 10 11 11 12 13 12
4 4 3 2 1 2 2 3 3 4 5 5 5 6 6 7 8 8 8 9 9 10 10 10 11 11 11 11 11 11 11 12 11 12 12 12 12 13 13 13 13 13 13
4 4 3 2 1 1 2 3 3 4 5 5 6 7 8 8 8 8 9 9 10 11 11 12 11 11 11 11 12 13 13 13 13 13 14 13 13 14 14 14 14 14 14
3 3 2 2 1 2 2 3 4 4 5 6 7 8 8 9 9 9 10 10 11 12 12 12 12 12 12 13 13 14 15 15 14 15 15 15 15 15 15 15 14 14 15
3 2 2 2 2 2 2 3 3 5 6 7 8 9 9 10 10 10 11 11 12 13 13 14 13 13 13 14 14 15 15 14 15 16 16 16 16 16 16 15 14 15 15
3 2 1 2 3 3 3 4 5 6 7 7 8 9 10 11 11 12 12 12 12 13 14 15 15 15 15 15 16 16 16 16 16 16 16 16 16 16 16 16 16 16 15
4 4 3 3 3 4 5 5 6 7 7 8 8 9 10 11 11 11 12 13 14 14 14 15 16 16 16 16 17 17 17 17 17 17 17 17 17 16 16 16 16 15 15
5 5 5 5 5 5 6 6 7 8 8 9 9 10 11 12 12 12 13 13 14 15 15 16 16 16 16 17 17 17 17 17 17 18 18 18 18 18 17 16 16 16 15
6 6 7 7 7 7 7 7 8 9 9 10 11 11 12 12 13 13 13 14 14 15 15 16 16 16 16 17 17 18 18 18 18 18 19 19 18 17 17 16 16 16 16
7 7 8 8 8 8 8 8 9 10 11 11 12 13 14 14 14 14 14 14 14 15 16 16 16 16 16 16 17 18 18 19 19 19 19 18 18 17 16 15 15 15 14
8 8 8 8 9 9 9 9 10 11 12 12 13 14 14 14 14 14 14 14 15 15 15 16 16 16 16 16 16 17 17 18 19 19 19 18 18 18 16 15 15 15 15
8 9 9 9 9 10 10 11 11 12 12 13 14 14 15 15 15 15 15 15 15 15 15 16 16 16 16 16 16 17 17 17 16 17 18 17 17 16 16 15 16 16 16
10 10 10 11 11 12 13 13 13 13 13 14 15 15 15 15 15 15 15 16 16 16 16 17 17 16 16 16 16 16 16 16 16 16 15 15 16 17 16 16 16 17 16
11 11 12 13 13 13 14 14 15 15 15 15 16 16 15 15 15 15 16 16 17 17 17 17 17 17 17 17 16 16 16 16 15 15 15 15 15 15 16 16 17 17 17
13 13 14 14 14 14 14 15 15 16 16 16 17 16 16 16 16 16 16 17 17 17 17 18 18 18 18 18 17 17 16 16 15 14 14 14 15 16 17 17 17 18 18
14 15 15 15 15 16 16 16 16 16 16 17 17 17 17 17 17 17 17 17 18 18 18 18 18 19 19 19 18 17 17 16 14 13 14 14 15 16 17 17 18 19 19
16 16 17 16 16 16 16 17 17 17 17 17 18 18 18 18 18 18 18 18 18 18 18 19 19 19 18 18 17 17 16 15 14 14 14 15 16 16 17 18 19 19 19
17 17 18 18 17 17 17 17 18 18 18 18 18 19 19 18 18 18 18 19 19 19 19 19 19 18 18 17 18 17 16 15 15 15 16 16 17 17 18 19 19 19 19
19 19 19 19 18 18 18 19 19 19 19 20 20 20 20 19 18 19 19 19 19 20 20 19 18 18 17 17 17 16 15 15 15 16 16 17 18 18 19 20 20 20 20
21 20 20 20 19 19 20 20 20 21 21 21 21 21 20 20 20 20 20 20 20 20 20 20 19 19 19 17 17 16 16 16 16 17 17 18 18 19 20 20 20 20 21
22 22 21 21 21 21 21 22 22 22 23 23 23 22 22 21 21 21 21 21 21 21 21 20 19 19 19 19 18 18 18 18 18 18 18 19 19 20 20 21 21 21 22
24 24 24 24 24 23 24 24 24 24 25 24 24 24 23 23 23 23 23 23 23 23 22 22 21 20 20 20 19 19 19 19 19 20 19 19 20 20 21 21 21 22 22
27 27 26 26 26 26 27 27 27 27 27 26 26 25 25 24 25 25 25 25 24 23 23 23 22 22 22 22 22 22 21 21 21 21 21 21 21 21 22 22 23 23 23
Wind_Direction
147 140 138 134 133 135 147 146 158 163 185 212 220 232 256 247 259 266 269 271 278 279 278 273 273 274 268 270 275 273 268 265 264 263 264 265 266 264 265 267 269 271 274
143 146 153 157 159 151 155 160 170 198 246 249 247 275 269 277 281 284 285 284 282 283 281 278 276 275 272 272 274 271 268 266 265 266 264 265 268 272 270 270 270 271 273
136 149 158 170 178 174 171 193 220 238 266 253 251 269 275 282 279 283 291 290 290 288 282 280 277 275 273 277 279 275 272 270 268 268 266 267 270 271 273 274 275 276 273
119 131 134 169 193 199 208 227 249 264 266 266 267 272 278 281 284 288 291 291 291 292 288 285 282 279 275 277 276 280 279 278 274 270 272 272 272 272 275 277 278 280 278
114 113 113 131 186 209 224 242 254 267 273 275 275 276 276 281 287 290 289 289 289 290 291 287 286 284 281 277 275 276 280 283 279 275 274 274 275 275 276 278 277 281 281
94 95 91 86 102 207 235 260 269 270 270 275 279 281 279 282 288 292 291 290 291 290 288 289 289 285 283 279 276 273 275 278 277 278 277 276 277 278 278 279 277 280 280
76 75 65 51 15 327 292 288 278 274 282 286 286 287 286 286 287 289 288 289 290 289 288 287 288 286 285 282 281 276 272 276 276 281 282 279 277 277 281 282 279 277 279
46 35 16 356 350 319 293 288 294 297 294 294 291 291 291 293 290 289 289 289 288 289 289 288 287 287 287 286 284 283 280 281 282 283 281 284 281 280 282 279 278 278 281
37 34 11 342 325 317 318 315 311 313 309 302 299 298 296 296 294 293 293 290 288 287 288 287 287 287 286 286 286 286 286 286 287 285 283 284 283 282 281 277 276 279 279
31 23 8 341 325 320 318 319 318 313 311 311 310 303 300 300 300 297 295 293 291 290 290 289 288 288 287 286 285 284 283 284 283 283 283 283 281 282 280 279 277 278 276
17 11 4 349 335 327 323 323 318 315 312 313 311 307 305 304 302 299 298 296 293 292 292 294 293 290 287 286 286 285 283 282 281 281 280 280 280 280 280 279 275 276 273
13 6 359 348 334 324 319 318 317 314 312 311 311 309 307 305 302 300 298 295 295 294 295 295 293 291 288 287 288 287 286 283 281 281 280 280 281 281 281 278 275 276 276
0 356 350 344 339 332 325 319 315 314 312 310 310 309 308 305 302 300 299 296 295 296 297 298 296 293 291 290 289 288 286 283 282 280 278 278 279 277 276 279 278 280 278
342 341 337 336 334 333 328 324 320 316 313 310 309 309 308 306 305 302 300 298 296 295 297 298 297 295 293 291 293 292 289 286 282 279 277 276 275 272 273 278 282 285 283
333 332 328 329 327 328 326 323 320 315 313 312 311 310 309 306 306 304 301 299 297 295 295 297 298 297 293 292 294 293 291 288 285 280 277 274 272 273 277 279 281 284 284
334 329 326 324 322 320 318 316 315 313 310 309 310 310 308 306 305 305 303 301 298 295 294 295 296 297 296 296 295 294 293 288 285 282 278 277 277 275 276 278 281 284 284
330 328 326 326 323 321 319 314 312 313 310 311 310 310 309 306 305 306 304 301 299 297 295 295 296 296 297 299 298 296 292 291 285 281 281 281 279 278 278 280 284 284 285
323 322 321 321 320 318 316 314 313 315 311 308 310 311 309 306 304 305 303 301 300 297 294 296 296 295 297 297 295 294 292 292 287 283 281 280 279 278 280 281 284 285 286
313 313 314 314 315 316 313 313 314 316 314 312 311 309 309 306 305 304 302 302 302 300 298 296 296 296 297 296 293 292 293 292 289 285 284 284 284 283 281 281 282 284 286
307 307 309 310 312 312 311 312 314 317 316 315 313 310 308 306 304 303 303 303 303 302 300 299 297 297 298 298 295 295 293 291 288 286 287 287 288 287 285 283 283 285 287
301 302 303 304 305 308 309 310 312 312 312 313 313 312 309 307 306 307 306 305 304 303 302 300 298 297 297 297 295 296 293 290 288 289 288 289 290 290 289 287 285 285 286
296 298 297 300 303 304 304 306 308 308 308 308 310 311 310 308 308 309 308 306 305 304 303 301 298 296 296 297 295 293 291 289 290 291 292 292 292 292 292 290 287 285 286
293 296 296 297 300 301 302 304 305 307 307 308 308 308 307 305 305 304 304 304 304 303 301 298 296 295 294 293 293 291 289 288 290 292 293 293 294 294 295 293 290 288 287
291 293 294 294 296 297 298 301 304 304 304 306 307 307 304 302 300 300 301 301 301 301 300 297 295 294 292 290 287 286 286 288 290 291 292 292 292 293 293 294 292 290 288
288 288 290 291 292 292 294 296 298 300 302 303 303 303 302 299 298 298 298 298 298 298 296 294 293 292 290 288 285 284 285 286 289 291 291 292 293 294 296 295 292 291 290
284 286 287 287 288 289 291 292 294 296 298 300 299 299 298 297 297 296 296 297 296 295 294 293 292 290 289 287 284 283 283 285 287 289 289 289 291 293 295 295 294 293 292
Height
5893 5894 5895 5895 5896 5896 5896 5896 5897 5897 5897 5897 5897 5897 5897 5897 5897 5897 5896 5896 5896 5895 5894 5894 5893 5893 5892 5891 5891 5891 5890 5890 5890 5889 5889 5888 5888 5888 5888 5887 5887 5887 5886
5894 5895 5895 5896 5896 5897 5897 5897 5897 5897 5897 5897 5897 5897 5897 5896 5896 5896 5895 5895 5894 5894 5893 5892 5892 5891 5890 5890 5889 5889 5888 5888 5888 5887 5887 5886 5886 5886 5886 5885 5885 5884 5884
5895 5895 5896 5896 5897 5897 5897 5897 5897 5897 5897 5896 5896 5896 5896 5896 5895 5895 5894 5894 5893 5892 5892 5891 5890 5889 5889 5888 5887 5887 5886 5886 5885 5885 5884 5884 5884 5883 5883 5883 5882 5882 5881
5896 5896 5896 5897 5897 5897 5897 5897 5897 5897 5896 5896 5896 5896 5895 5895 5894 5894 5893 5892 5892 5891 5890 5889 5888 5887 5887 5886 5885 5885 5884 5883 5883 5882 5882 5882 5881 5881 5881 5880 5879 5879 5878
5896 5896 5897 5897 5896 5897 5897 5896 5896 5896 5895 5895 5895 5894 5894 5894 5893 5892 5892 5891 5890 5889 5888 5887 5886 5885 5884 5884 5883 5882 5882 5881 5880 5880 5879 5879 5878 5878 5878 5877 5877 5876 5875
5897 5897 5897 5897 5896 5896 5896 5896 5895 5895 5895 5894 5894 5893 5893 5892 5892 5891 5890 5889 5888 5887 5886 5885 5884 5883 5882 5881 5881 5880 5879 5879 5878 5877 5876 5876 5875 5875 5875 5874 5873 5873 5872
5897 5897 5897 5896 5896 5896 5896 5895 5895 5894 5894 5893 5893 5892 5891 5890 5890 5889 5888 5887 5886 5885 5884 5883 5882 5881 5880 5879 5878 5877 5876 5875 5874 5874 5873 5873 5872 5872 5871 5870 5870 5869 5868
5897 5897 5896 5896 5896 5896 5895 5894 5894 5893 5893 5892 5891 5890 5890 5889 5888 5887 5886 5885 5884 5882 5881 5880 5879 5878 5877 5876 5875 5874 5873 5872 5871 5870 5870 5869 5869 5868 5867 5866 5865 5865 5864
5897 5897 5896 5896 5896 5895 5894 5894 5893 5892 5891 5890 5889 5889 5888 5887 5885 5885 5883 5882 5881 5880 5878 5877 5876 5875 5874 5873 5872 5871 5870 5869 5868 5867 5866 5865 5865 5864 5863 5862 5862 5861 5860
5898 5897 5896 5896 5895 5894 5894 5893 5892 5891 5890 5889 5888 5887 5886 5885 5883 5882 5881 5879 5878 5876 5875 5874 5873 5872 5870 5869 5868 5867 5866 5866 5865 5864 5863 5862 5861 5860 5859 5859 5858 5857 5856
5898 5897 5896 5895 5894 5893 5892 5892 5891 5890 5889 5888 5886 5885 5883 5882 5880 5879 5878 5876 5875 5873 5872 5871 5869 5868 5867 5866 5865 5863 5862 5862 5861 5860 5859 5858 5857 5856 5855 5854 5854 5853 5853
5898 5897 5896 5894 5893 5892 5891 5890 5889 5888 5887 5886 5884 5883 5881 5880 5878 5876 5875 5873 5872 5870 5869 5867 5866 5864 5863 5862 5861 5859 5858 5857 5856 5855 5854 5853 5852 5852 5851 5850 5850 5849 5849
5897 5896 5895 5893 5892 5891 5890 5889 5888 5886 5885 5884 5882 5880 5879 5877 5875 5873 5872 5870 5869 5867 5865 5864 5862 5860 5859 5857 5856 5855 5853 5852 5851 5850 5850 5849 5848 5848 5847 5846 5845 5845 5844
5897 5895 5894 5893 5891 5890 5889 5887 5886 5884 5883 5881 5879 5878 5876 5874 5872 5870 5868 5867 5865 5864 5862 5860 5858 5856 5855 5853 5852 5850 5849 5847 5846 5846 5845 5844 5844 5843 5843 5842 5842 5841 5840
5896 5894 5893 5891 5890 5888 5887 5885 5884 5882 5880 5878 5877 5875 5873 5871 5868 5866 5864 5863 5862 5860 5858 5856 5854 5852 5851 5849 5847 5846 5844 5842 5841 5841 5840 5839 5839 5839 5838 5838 5838 5837 5836
5894 5893 5891 5889 5888 5886 5885 5883 5881 5879 5877 5875 5873 5871 5869 5867 5865 5863 5861 5859 5858 5856 5854 5852 5850 5849 5847 5845 5843 5841 5839 5838 5837 5836 5835 5835 5835 5835 5834 5834 5833 5832 5832
5893 5891 5889 5887 5885 5883 5881 5880 5878 5876 5874 5872 5870 5868 5865 5863 5861 5859 5857 5855 5853 5852 5850 5848 5846 5845 5843 5841 5839 5837 5835 5834 5832 5831 5831 5831 5830 5830 5830 5829 5829 5828 5827
5890 5889 5887 5885 5883 5880 5878 5876 5874 5872 5870 5868 5866 5864 5862 5859 5857 5855 5853 5851 5849 5848 5846 5844 5842 5840 5839 5837 5835 5833 5831 5829 5828 5827 5826 5826 5826 5826 5825 5825 5824 5823 5822
5888 5886 5884 5882 5879 5877 5875 5873 5870 5868 5867 5865 5863 5861 5858 5856 5854 5852 5850 5847 5845 5843 5841 5839 5838 5836 5834 5832 5830 5828 5827 5825 5824 5823 5822 5822 5821 5821 5820 5820 5819 5818 5817
5884 5882 5880 5878 5876 5873 5871 5869 5867 5865 5863 5861 5859 5856 5854 5852 5849 5847 5846 5843 5841 5839 5837 5835 5833 5831 5829 5827 5825 5824 5823 5821 5820 5819 5818 5817 5817 5816 5815 5814 5813 5813 5812
5880 5878 5877 5875 5872 5870 5868 5866 5864 5861 5859 5857 5855 5852 5850 5847 5845 5843 5841 5839 5837 5835 5832 5830 5828 5826 5824 5823 5821 5820 5818 5817 5816 5815 5814 5813 5812 5811 5810 5809 5808 5807 5806
5875 5873 5872 5870 5868 5866 5864 5861 5859 5857 5855 5852 5850 5848 5845 5843 5841 5839 5837 5835 5833 5830 5828 5826 5824 5822 5820 5818 5817 5815 5814 5813 5812 5811 5810 5808 5807 5806 5805 5803 5802 5801 5800
5869 5868 5866 5865 5863 5861 5859 5857 5854 5852 5850 5847 5845 5843 5840 5838 5836 5834 5832 5830 5828 5825 5823 5821 5819 5817 5815 5814 5812 5811 5810 5809 5808 5806 5804 5803 5802 5801 5799 5798 5796 5795 5794
5864 5863 5861 5859 5857 5856 5854 5851 5849 5847 5844 5842 5840 5837 5835 5833 5831 5829 5827 5825 5822 5820 5817 5815 5813 5811 5810 5809 5807 5806 5805 5804 5802 5801 5799 5798 5797 5795 5793 5792 5790 5789 5787
5858 5856 5855 5853 5852 5850 5848 5845 5843 5841 5838 5836 5834 5832 5829 5827 5825 5823 5821 5819 5816 5814 5812 5810 5808 5806 5804 5803 5802 5801 5799 5798 5797 5796 5794 5793 5791 5789 5787 5786 5784 5782 5780
5850 5849 5848 5846 5845 5843 5841 5839 5836 5834 5832 5830 5827 5825 5823 5821 5819 5816 5814 5812 5810 5808 5806 5803 5802 5800 5798 5797 5796 5795 5794 5793 5791 5790 5788 5787 5785 5783 5781 5779 5777 5775 5774